User: anonymous   Login
Location: *
(50.5492°N, 7.7469°E)
Time: 06:33:07
(UTC+00:00)
Language:

Cosmos 2151 - Orbit

View from above orbital plane
View from above orbital plane
View from above satellite
View from above satellite

Ground track
Ground track

The orbit data is extracted from the following two-line orbital elements,

1 21422U 91042A   19349.03563813  .00000157  00000-0  12905-4 0  9996
2 21422  82.5009  99.4801 0015422 129.0433 231.2162 14.92090597544314
Epoch (UTC): 15 December 2019 00:51:19
Eccentricity: 0.0015422
inclination: 82.5009°
perigee height: 580 km
apogee height: 602 km
right ascension of ascending node: 99.4801°
argument of perigee: 129.0433°
revolutions per day: 14.92090597
mean anomaly at epoch: 231.2162°
orbit number at epoch: 54431

The dashed part of the orbit path shows where the satellite is in the earth's shadow,  

DLR